�������l�o���
Date,Time,MP-1(��Sv/h),MP-2(��Sv/h),MP-3(��Sv/h),MP-4(��Sv/h),MP-5(��Sv/h),MP-6(��Sv/h),MP-7(��Sv/h),MP-8(��Sv/h),����,����(m/s),���J
2018/01/01,00:00,0.896,1.487,0.938,1.772,1.190,0.494,0.882,0.845,���k��,2.3,��
2018/01/01,00:10,0.893,1.486,0.937,1.769,1.192,0.494,0.880,0.844,���k��,2.3,��
2018/01/01,00:20,0.892,1.487,0.937,1.772,1.189,0.493,0.883,0.844,�k��,3.0,��
2018/01/01,00:30,0.894,1.485,0.937,1.770,1.189,0.494,0.881,0.845,�k��,1.4,��
2018/01/01,00:40,0.893,1.487,0.937,1.768,1.190,0.493,0.880,0.844,���k��,1.9,��
2018/01/01,00:50,0.893,1.485,0.936,1.765,1.187,0.492,0.881,0.844,���k��,2.2,��
2018/01/01,01:00,0.894,1.485,0.938,1.770,1.186,0.494,0.879,0.845,���k��,5.1,��
2018/01/01,01:10,0.892,1.483,0.933,1.767,1.189,0.495,0.881,0.844,���k��,5.2,��
2018/01/01,01:20,0.894,1.485,0.936,1.768,1.188,0.493,0.881,0.845,���k��,3.7,��
2018/01/01,01:30,0.893,1.486,0.937,1.768,1.189,0.492,0.880,0.844,���k��,4.5,��
2018/01/01,01:40,0.894,1.485,0.936,1.769,1.192,0.492,0.881,0.845,�k��,5.5,��
2018/01/01,01:50,0.893,1.485,0.937,1.767,1.187,0.492,0.880,0.845,���k��,5.4,��
2018/01/01,02:00,0.893,1.484,0.937,1.770,1.189,0.493,0.881,0.844,���k��,5.6,��
2018/01/01,02:10,0.893,1.486,0.936,1.770,1.188,0.494,0.879,0.844,���k��,5.2,��
2018/01/01,02:20,0.892,1.487,0.938,1.768,1.186,0.495,0.880,0.844,���k��,6.6,��
2018/01/01,02:30,0.892,1.484,0.936,1.769,1.189,0.494,0.880,0.843,���k��,6.1,��
2018/01/01,02:40,0.893,1.486,0.935,1.770,1.187,0.495,0.881,0.843,���k��,6.2,��
2018/01/01,02:50,0.892,1.486,0.937,1.771,1.187,0.493,0.882,0.844,���k��,6.2,��
2018/01/01,03:00,0.893,1.484,0.934,1.767,1.187,0.494,0.880,0.843,���k��,6.6,��
2018/01/01,03:10,0.895,1.486,0.935,1.770,1.189,0.493,0.879,0.844,�k��,7.1,��
2018/01/01,03:20,0.893,1.484,0.936,1.769,1.185,0.493,0.880,0.844,���k��,6.3,��
2018/01/01,03:30,0.891,1.484,0.937,1.769,1.190,0.493,0.882,0.844,���k��,6.2,��
2018/01/01,03:40,0.893,1.486,0.935,1.769,1.187,0.493,0.880,0.844,���k��,5.8,��
2018/01/01,03:50,0.892,1.484,0.936,1.766,1.187,0.493,0.881,0.845,���k��,6.2,��
2018/01/01,04:00,0.892,1.485,0.935,1.770,1.187,0.495,0.881,0.843,���k��,6.7,��
2018/01/01,04:10,0.894,1.484,0.938,1.767,1.187,0.493,0.880,0.846,���k��,6.7,��
2018/01/01,04:20,0.893,1.485,0.935,1.769,1.186,0.493,0.883,0.844,���k��,7.0,��
2018/01/01,04:30,0.892,1.485,0.935,1.767,1.186,0.493,0.880,0.846,���k��,6.5,��
2018/01/01,04:40,0.895,1.487,0.937,1.768,1.187,0.493,0.882,0.845,���k��,6.8,��
2018/01/01,04:50,0.893,1.488,0.938,1.768,1.189,0.494,0.879,0.846,�k��,7.9,��
2018/01/01,05:00,0.894,1.483,0.937,1.773,1.188,0.493,0.882,0.845,�k��,7.7,��
2018/01/01,05:10,0.894,1.484,0.936,1.771,1.189,0.493,0.881,0.847,�k��,6.2,��
2018/01/01,05:20,0.891,1.483,0.935,1.769,1.189,0.494,0.882,0.844,�k��,7.8,��
2018/01/01,05:30,0.894,1.485,0.936,1.768,1.185,0.495,0.880,0.846,�k��,7.0,��
2018/01/01,05:40,0.894,1.484,0.936,1.770,1.185,0.494,0.882,0.847,�k��,7.5,��
2018/01/01,05:50,0.892,1.483,0.936,1.770,1.189,0.495,0.883,0.846,�k�k��,7.3,��
2018/01/01,06:00,0.894,1.487,0.935,1.772,1.183,0.494,0.884,0.846,�k��,5.8,��
2018/01/01,06:10,0.893,1.485,0.937,1.770,1.189,0.494,0.882,0.844,�k��,5.4,��
2018/01/01,06:20,0.893,1.487,0.936,1.770,1.186,0.492,0.881,0.846,�k��,7.1,��
2018/01/01,06:30,0.892,1.486,0.938,1.773,1.187,0.493,0.882,0.846,�k��,7.7,��
2018/01/01,06:40,0.892,1.486,0.936,1.770,1.187,0.493,0.881,0.846,�k��,6.3,��
2018/01/01,06:50,0.894,1.482,0.938,1.770,1.186,0.494,0.882,0.846,�k�k��,6.8,��
2018/01/01,07:00,0.891,1.486,0.937,1.774,1.187,0.494,0.884,0.845,�k��,6.6,��
2018/01/01,07:10,0.895,1.483,0.936,1.769,1.188,0.493,0.883,0.844,�k��,6.8,��
2018/01/01,07:20,0.892,1.483,0.936,1.772,1.187,0.494,0.883,0.847,�k��,7.2,��
2018/01/01,07:30,0.893,1.485,0.938,1.771,1.189,0.494,0.883,0.844,�k��,6.4,��
2018/01/01,07:40,0.893,1.486,0.938,1.772,1.187,0.494,0.883,0.845,�k�k��,5.7,��
2018/01/01,07:50,0.895,1.486,0.937,1.769,1.188,0.494,0.883,0.845,�k�k��,7.2,��
2018/01/01,08:00,0.893,1.485,0.938,1.773,1.186,0.495,0.884,0.845,�k�k��,7.5,��
2018/01/01,08:10,0.892,1.487,0.937,1.771,1.188,0.494,0.884,0.845,�k�k��,7.6,��
2018/01/01,08:20,0.893,1.487,0.936,1.771,1.189,0.494,0.883,0.846,�k�k��,6.1,��
2018/01/01,08:30,0.894,1.488,0.938,1.772,1.187,0.496,0.884,0.847,�k�k��,5.9,��
2018/01/01,08:40,0.892,1.485,0.939,1.774,1.189,0.493,0.883,0.847,�k�k��,5.2,��
2018/01/01,08:50,0.895,1.490,0.938,1.772,1.189,0.495,0.883,0.845,�k��,5.5,��
2018/01/01,09:00,0.896,1.488,0.939,1.774,1.191,0.495,0.883,0.846,���k��,5.6,��
2018/01/01,09:10,0.897,1.487,0.942,1.774,1.191,0.495,0.884,0.846,�k��,7.2,��
2018/01/01,09:20,0.896,1.489,0.939,1.774,1.191,0.494,0.885,0.847,�k��,9.1,��
2018/01/01,09:30,0.896,1.492,0.940,1.773,1.188,0.495,0.885,0.846,�k��,5.3,��
2018/01/01,09:40,0.898,1.493,0.941,1.773,1.191,0.496,0.886,0.845,���k��,3.8,��
2018/01/01,09:50,0.898,1.491,0.941,1.775,1.192,0.494,0.883,0.846,�k��,5.3,��
2018/01/01,10:00,0.898,1.489,0.942,1.773,1.192,0.496,0.884,0.846,���k��,6.3,��
2018/01/01,10:10,0.897,1.491,0.940,1.777,1.190,0.494,0.882,0.847,���k��,6.1,��
2018/01/01,10:20,0.898,1.491,0.940,1.777,1.193,0.496,0.884,0.847,��,7.0,��
2018/01/01,10:30,0.897,1.487,0.941,1.774,1.193,0.495,0.884,0.848,���k��,7.2,��
2018/01/01,10:40,0.898,1.492,0.942,1.776,1.194,0.496,0.884,0.848,���k��,6.9,��
2018/01/01,10:50,0.900,1.489,0.940,1.777,1.194,0.495,0.884,0.849,�k��,7.0,��
2018/01/01,11:00,0.898,1.490,0.939,1.778,1.195,0.498,0.884,0.848,�k��,7.2,��
2018/01/01,11:10,0.898,1.494,0.942,1.777,1.196,0.494,0.884,0.848,���k��,7.5,��
2018/01/01,11:20,0.901,1.490,0.942,1.779,1.197,0.496,0.885,0.847,�k��,7.8,��
2018/01/01,11:30,0.899,1.494,0.942,1.778,1.197,0.496,0.884,0.848,���k��,6.6,��
2018/01/01,11:40,0.899,1.495,0.943,1.779,1.199,0.495,0.884,0.848,��,8.1,��
2018/01/01,11:50,0.900,1.491,0.943,1.780,1.200,0.496,0.884,0.850,��,7.7,��
2018/01/01,12:00,0.900,1.491,0.942,1.780,1.199,0.496,0.883,0.849,��,8.4,��
2018/01/01,12:10,0.899,1.492,0.944,1.780,1.197,0.496,0.885,0.848,�k��,6.3,��
2018/01/01,12:20,0.900,1.492,0.943,1.777,1.198,0.496,0.886,0.849,���k��,6.8,��
2018/01/01,12:30,0.902,1.494,0.943,1.779,1.197,0.496,0.885,0.851,���k��,6.7,��
2018/01/01,12:40,0.902,1.494,0.945,1.781,1.197,0.496,0.885,0.849,��,5.3,��
2018/01/01,12:50,0.899,1.494,0.943,1.780,1.201,0.497,0.886,0.850,��,7.1,��
2018/01/01,13:00,0.900,1.494,0.942,1.782,1.199,0.498,0.886,0.848,���k��,7.9,��
2018/01/01,13:10,0.899,1.494,0.943,1.782,1.199,0.497,0.886,0.848,��,7.8,��
2018/01/01,13:20,0.902,1.494,0.945,1.779,1.201,0.497,0.885,0.848,��,6.1,��
2018/01/01,13:30,0.899,1.496,0.944,1.783,1.200,0.496,0.885,0.847,��,8.5,��
2018/01/01,13:40,0.900,1.494,0.943,1.782,1.199,0.498,0.886,0.845,���k��,7.6,��
2018/01/01,13:50,0.902,1.495,0.946,1.781,1.203,0.497,0.884,0.845,��,5.9,��
2018/01/01,14:00,0.899,1.498,0.943,1.783,1.200,0.496,0.887,0.846,��,6.6,��
2018/01/01,14:10,0.900,1.493,0.945,1.778,1.202,0.497,0.886,0.848,��,7.8,��
2018/01/01,14:20,0.903,1.495,0.943,1.784,1.200,0.498,0.888,0.847,��,6.5,��
2018/01/01,14:30,0.903,1.493,0.944,1.780,1.202,0.497,0.885,0.848,��,7.8,��
2018/01/01,14:40,0.902,1.496,0.945,1.778,1.201,0.498,0.887,0.847,��,7.3,��
2018/01/01,14:50,0.902,1.494,0.946,1.778,1.201,0.497,0.886,0.849,��,5.7,��
2018/01/01,15:00,0.902,1.501,0.946,1.779,1.202,0.497,0.886,0.849,��,8.7,��
2018/01/01,15:10,0.902,1.496,0.945,1.782,1.201,0.497,0.886,0.849,���k��,9.3,��
2018/01/01,15:20,0.903,1.499,0.945,1.785,1.202,0.497,0.886,0.847,���k��,8.6,��
2018/01/01,15:30,0.903,1.499,0.945,1.782,1.200,0.497,0.885,0.848,���k��,7.0,��
2018/01/01,15:40,0.900,1.500,0.945,1.782,1.201,0.499,0.886,0.847,���k��,5.1,��
2018/01/01,15:50,0.901,1.501,0.945,1.783,1.200,0.498,0.886,0.851,�k�k��,3.6,��
2018/01/01,16:00,0.902,1.501,0.946,1.781,1.200,0.497,0.886,0.848,�k,3.3,��
2018/01/01,16:10,0.901,1.500,0.946,1.779,1.199,0.496,0.886,0.850,�k��,2.3,��
2018/01/01,16:20,0.902,1.499,0.944,1.782,1.201,0.496,0.885,0.848,�k�k��,2.8,��
2018/01/01,16:30,0.903,1.499,0.943,1.780,1.200,0.496,0.885,0.847,�k,2.8,��
2018/01/01,16:40,0.902,1.498,0.944,1.782,1.200,0.496,0.885,0.847,�k�k��,2.2,��
2018/01/01,16:50,0.899,1.497,0.942,1.779,1.197,0.495,0.883,0.848,�k�k��,2.3,��
2018/01/01,17:00,0.899,1.497,0.944,1.777,1.199,0.496,0.883,0.848,�k�k��,3.6,��
2018/01/01,17:10,0.901,1.496,0.944,1.779,1.200,0.497,0.885,0.847,�k�k��,2.3,��
2018/01/01,17:20,0.900,1.497,0.943,1.779,1.196,0.496,0.884,0.848,�k,1.5,��
2018/01/01,17:30,0.898,1.501,0.943,1.780,1.199,0.496,0.884,0.849,�k,2.3,��
2018/01/01,17:40,0.898,1.500,0.942,1.777,1.198,0.496,0.883,0.846,�k��,2.6,��
2018/01/01,17:50,0.902,1.496,0.941,1.776,1.201,0.495,0.881,0.846,�k�k��,2.0,��
2018/01/01,18:00,0.901,1.498,0.942,1.778,1.199,0.495,0.883,0.846,�k�k��,1.2,��
2018/01/01,18:10,0.899,1.497,0.943,1.776,1.198,0.494,0.881,0.847,�k�k��,0.9,��
2018/01/01,18:20,0.900,1.498,0.942,1.776,1.197,0.495,0.881,0.848,�k��,1.7,��
2018/01/01,18:30,0.900,1.497,0.941,1.775,1.198,0.495,0.883,0.847,���k��,3.4,��
2018/01/01,18:40,0.901,1.497,0.944,1.779,1.200,0.496,0.882,0.847,���k��,3.5,��
2018/01/01,18:50,0.899,1.497,0.943,1.774,1.199,0.496,0.883,0.845,��,3.8,��
2018/01/01,19:00,0.900,1.496,0.941,1.778,1.198,0.495,0.883,0.847,�k��,3.2,��
2018/01/01,19:10,0.898,1.497,0.942,1.779,1.196,0.495,0.883,0.847,�k��,4.8,��
2018/01/01,19:20,0.899,1.496,0.941,1.779,1.197,0.495,0.883,0.846,���k��,5.8,��
2018/01/01,19:30,0.897,1.498,0.943,1.779,1.196,0.495,0.883,0.847,���k��,6.7,��
2018/01/01,19:40,0.899,1.496,0.943,1.779,1.197,0.494,0.882,0.844,���k��,6.7,��
2018/01/01,19:50,0.897,1.496,0.942,1.780,1.198,0.495,0.883,0.846,���k��,7.7,��
2018/01/01,20:00,0.899,1.497,0.941,1.781,1.199,0.494,0.885,0.847,�k��,7.4,��
2018/01/01,20:10,0.899,1.496,0.942,1.778,1.197,0.495,0.884,0.846,�k��,6.8,��
2018/01/01,20:20,0.899,1.498,0.942,1.775,1.197,0.497,0.884,0.846,�k��,6.1,��
2018/01/01,20:30,0.898,1.496,0.941,1.777,1.197,0.493,0.883,0.845,�k�k��,5.8,��
2018/01/01,20:40,0.899,1.496,0.942,1.779,1.196,0.495,0.884,0.847,�k�k��,5.7,��
2018/01/01,20:50,0.899,1.496,0.942,1.778,1.198,0.492,0.882,0.847,�k�k��,6.9,��
2018/01/01,21:00,0.898,1.496,0.944,1.779,1.197,0.493,0.882,0.847,�k�k��,7.1,��
2018/01/01,21:10,0.899,1.496,0.942,1.779,1.196,0.495,0.883,0.847,�k�k��,6.4,��
2018/01/01,21:20,0.900,1.496,0.940,1.778,1.199,0.494,0.885,0.847,�k�k��,6.1,��
2018/01/01,21:30,0.898,1.496,0.940,1.778,1.196,0.494,0.884,0.846,�k�k��,6.3,��
2018/01/01,21:40,0.899,1.496,0.940,1.780,1.197,0.494,0.882,0.846,�k��,7.3,��
2018/01/01,21:50,0.899,1.499,0.943,1.779,1.195,0.494,0.884,0.845,�k�k��,6.9,��
2018/01/01,22:00,0.897,1.497,0.941,1.776,1.198,0.493,0.882,0.847,�k��,7.3,��
2018/01/01,22:10,0.899,1.496,0.940,1.779,1.197,0.494,0.882,0.846,�k��,5.4,��
2018/01/01,22:20,0.897,1.497,0.942,1.780,1.195,0.493,0.882,0.846,�k��,4.3,��
2018/01/01,22:30,0.896,1.494,0.939,1.782,1.197,0.494,0.883,0.847,�k��,5.5,��
2018/01/01,22:40,0.898,1.495,0.939,1.777,1.197,0.493,0.883,0.848,�k�k��,4.4,��
2018/01/01,22:50,0.897,1.495,0.938,1.777,1.195,0.494,0.882,0.846,�k�k��,5.2,��
2018/01/01,23:00,0.898,1.495,0.940,1.778,1.195,0.493,0.884,0.845,�k�k��,5.2,��
2018/01/01,23:10,0.896,1.496,0.937,1.777,1.196,0.495,0.881,0.846,�k��,5.3,��
2018/01/01,23:20,0.897,1.494,0.940,1.776,1.195,0.494,0.883,0.846,�k�k��,5.4,��
2018/01/01,23:30,0.897,1.493,0.940,1.777,1.194,0.492,0.882,0.845,�k�k��,7.5,��
2018/01/01,23:40,0.897,1.496,0.940,1.776,1.198,0.493,0.880,0.845,�k�k��,7.8,��
2018/01/01,23:50,0.900,1.497,0.939,1.777,1.196,0.493,0.883,0.848,�k�k��,7.3,��
